Location: Poigny-la-Forêt
(48.6876°N, 1.7701°E)
Time: 00:03:56
(UTC+02:00)

ISS - Pass Details

Date: 21 March 2019
Orbit: 408 x 410 km, 51.6° (Epoch: 26 April)

Event Time Altitude Azimuth Distance (km) Brightness Sun altitude
Rises 20:19:18 0° 202° (SSW) 2,323 0.1 -12.6°
Reaches altitude 10° 20:21:52 10° 181° (S) 1,467 -1.2 -13.1°
Enters shadow 20:23:31 16° 151° (SSE) 1,149 -1.9 -13.3°
